Regional Weather Roundup
Issued by NWS

Home | Current Version | Previous Version | Graphics & Text | Print | Product List | Glossary Off
Versions: 1 2 3 4 5 6 7 8 9 10 11 12 13 14 15 16 17 18 19 20 21 22 23 24 25 26 27 28 29 30 31 32 33 34 35 36 37 38 39 40 41 42 43 44 45 46 47 48 49 50

000
ASUS43 KTOP 232308
RWRKS

WEATHER ROUNDUP FOR KANSAS
NATIONAL WEATHER SERVICE GOODLAND KS
600 PM CDT SAT SEP 23 2017

NOTE:  "FAIR" INDICATES FEW OR NO CLOUDS BELOW 12,000 FEET WITH NO
SIGNIFICANT WEATHER AND/OR OBSTRUCTIONS TO VISIBILITY.

KSZ001>006-013>018-027>032-041>047-240000-
NORTHWEST KANSAS

CITY           SKY/WX    TMP DP  RH WIND       PRES   REMARKS
GOODLAND       CLOUDY    60  55  83 N6        29.88S
HAYS           MOSUNNY   88  61  40 S26G32    29.82S
HILL CITY      MOSUNNY   89  60  37 S17       29.81R
RUSSELL        SUNNY     88  59  37 SE25G38   29.83S
$$

KSZ061>065-074>080-084>089-240000-
SOUTHWEST KANSAS

CITY           SKY/WX    TMP DP  RH WIND       PRES   REMARKS
DODGE CITY     CLOUDY    85  58  39 S26G37    29.85F
ELKHART          N/A     68  61  78 W15         N/A
GARDEN CITY    PTSUNNY   83  59  44 S23G35    29.83S
GREAT BEND     MOSUNNY   87  60  40 S25G35    29.86R
LIBERAL        CLOUDY    80  63  55 SE26      29.84S
PRATT          MOSUNNY   85  56  37 S16G28    29.88S
$$

KSZ066>073-081>083-090>101-240000-
SOUTHEAST KANSAS

CITY           SKY/WX    TMP DP  RH WIND       PRES   REMARKS
CHANUTE        SUNNY     87  67  51 SE9       29.95S
COFFEYVILLE    SUNNY     89  66  46 S9        29.92S
HUTCHINSON     MOSUNNY   89  61  38 S23G31    29.87F
MEDICINE LODGE   N/A     87  58  37 S16G31    29.86R
NEWTON         SUNNY     87  62  43 S14G24    29.92R
PARSONS        MOSUNNY   86  65  49 SE3       29.95S
WICHITA INTL   MOSUNNY   88  63  43 S21       29.89S
WICHITA JABRA  MOSUNNY   86  63  45 SE16      29.90S
WICHITA MCCONL SUNNY     88  61  39 S21       29.90F
WINFIELD       SUNNY     87  63  44 SE12      29.92S
$$

KSZ007>012-019>026-033>040-048>060-102>105-240000-
NORTHEAST KANSAS

CITY           SKY/WX    TMP DP  RH WIND       PRES   REMARKS
CONCORDIA      SUNNY     86  61  42 S17G29    29.87R
EMPORIA        SUNNY     86  62  44 S15       29.93R
LAWRENCE       SUNNY     87  68  52 SE13      29.93S
MANHATTAN      SUNNY     90  63  40 S14G22    29.90R
MARYSVILLE     MOSUNNY   88  63  42 S18G25    29.90R
OLATHE IND     SUNNY     86  68  54 SE8       29.96S
OLATHE EXE     MOSUNNY   84  68  58 S9        29.96S
SALINA         MOSUNNY   92  59  33 SE22G32   29.87S
TOPEKA BILLARD SUNNY     88  66  48 SE15      29.93R
TOPEKA FORBES  SUNNY     88  65  46 SE13      29.94R
$$




USA.gov is the U.S. government's official web portal to all federal, state and local government web resources and services.